Presure
92 92 97 171 144 138 133 167 137 106 138 138 135 136 154 142 136 124 122 149 135 135 143 130 143 128 139 135 142 139 147 139 144 148 171 151 150 166 161 195 196 193 168 180 175
126 119 120 118 169 137 109 100 141 141 136 129 152 138 156 124 141 139 140 147 140 120 130 136 147 142 135 137 123 115 139 154 148 147 143 127 137 144 162 154 160 203 153 185 183
168 132 130 143 129 135 154 142 140 144 148 156 145 156 147 148 154 153 143 139 123 137 121 119 157 130 154 128 147 133 139 145 127 146 147 132 138 132 170 163 157 203 200 190 187
151 129 137 130 125 131 139 144 128 140 154 143 143 136 153 143 140 152 137 167 133 130 156 133 133 141 137 131 138 132 134 130 146 133 137 162 183 144 169 159 162 167 200 193 182
144 144 124 134 151 131 141 133 141 135 152 135 142 152 143 152 136 147 159 132 145 166 141 128 130 132 126 126 111 145 126 146 149 125 142 155 186 184 175 136 156 171 180 208 188
145 151 128 135 129 140 138 132 142 139 145 132 142 145 141 147 117 130 155 144 145 139 150 157 145 139 130 141 134 132 135 149 145 130 149 148 174 174 201 148 144 168 178 201 198
168 140 141 141 152 133 154 142 139 134 145 133 141 143 139 149 136 137 124 117 125 120 126 126 132 132 131 122 137 153 139 148 134 141 176 157 172 179 182 181 172 166 177 188 193
150 179 150 146 131 139 138 162 153 136 127 130 150 127 127 152 133 123 116 121 138 115 133 116 139 132 128 130 130 140 135 140 153 145 144 176 168 181 157 171 179 171 181 189 193
170 135 160 143 155 135 139 142 125 142 133 130 141 133 155 141 132 138 124 126 124 118 114 128 115 129 122 153 113 181 168 147 141 188 182 128 187 156 143 175 169 170 184 186 190
145 170 150 142 147 132 134 136 129 161 131 145 149 140 137 171 115 119 112 117 126 114 126 126 119 117 129 155 132 131 145 155 199 164 191 188 186 174 142 156 176 184 197 190 194
163 153 183 144 123 137 137 145 128 131 140 117 175 161 135 177 122 121 118 122 104 109 137 127 167 134 145 140 137 146 109 185 172 195 195 190 157 141 150 159 190 195 205 199 200
144 134 164 168 142 168 143 170 113 148 147 136 138 161 126 135 132 124 144 118 130 118 130 126 169 134 120 121 126 194 112 169 195 192 195 154 158 159 156 178 189 199 202 211 217
163 140 193 181 148 173 153 141 144 130 161 142 137 144 142 179 110 114 126 116 118 146 161 117 169 120 125 119 173 189 190 200 192 157 143 173 147 155 172 193 198 204 212 226 232
154 145 138 169 181 166 162 144 147 140 150 162 157 153 125 136 153 141 107 111 117 158 119 189 159 167 162 178 169 197 201 190 182 125 189 144 153 159 171 188 212 227 242 192 181
126 148 192 119 143 147 153 159 181 193 163 123 162 123 167 166 127 173 170 121 114 113 165 175 180 104 189 169 175 181 189 168 185 136 135 143 171 173 176 210 222 233 197 206 192
171 130 119 131 143 143 187 143 159 165 159 173 167 165 163 163 178 159 116 104 105 109 111 153 149 102 151 168 200 176 182 184 176 139 137 159 179 171 186 214 226 194 215 191 180
169 110 158 174 121 167 146 163 161 156 152 159 155 161 172 160 159 138 159 169 124 150 145 178 101 158 103 189 172 177 180 150 162 159 138 156 176 183 198 218 198 210 192 185 175
180 184 171 124 192 180 138 148 171 173 151 156 167 154 152 142 152 154 195 147 115 140 144 140 131 158 107 139 151 170 172 162 122 158 150 178 175 187 234 234 214 195 176 165 165
181 183 175 169 168 137 159 116 147 171 155 145 155 172 162 157 151 149 153 147 142 169 152 143 158 182 110 189 162 180 154 120 138 163 142 168 173 200 222 225 190 188 183 163 153
166 159 197 200 170 121 129 145 146 159 156 156 149 168 159 148 149 148 141 151 145 145 149 147 119 118 142 158 157 173 151 129 150 164 170 159 180 217 233 209 196 180 176 170 176
151 203 191 156 205 151 167 144 148 151 163 159 161 166 144 148 154 152 153 141 143 146 153 143 129 154 137 149 167 123 126 182 137 161 171 192 188 197 227 202 191 188 179 158 183
220 146 204 162 204 222 192 156 160 149 138 141 142 140 143 144 146 140 150 142 148 149 157 150 145 139 213 205 186 184 178 139 133 167 185 172 192 212 226 200 189 191 181 182 178
256 238 162 230 208 127 158 120 149 142 142 136 133 145 151 155 155 154 157 145 146 149 172 176 182 151 216 190 189 173 189 200 140 165 188 185 191 212 227 200 195 186 170 183 171
224 197 231 182 167 225 162 176 134 139 129 136 151 149 132 184 155 151 147 156 151 161 157 153 202 154 212 175 180 207 158 156 144 176 183 186 195 216 223 210 189 188 180 180 175
258 245 140 167 221 169 182 207 187 187 135 185 182 131 149 167 133 153 155 165 169 191 147 220 216 197 214 186 187 196 192 142 179 183 163 177 202 212 220 208 189 184 178 180 176
248 259 267 186 132 178 108 178 122 147 188 135 149 195 140 157 148 148 146 148 178 138 216 216 213 208 210 194 172 186 140 133 157 199 160 195 191 203 217 206 194 186 177 180 182
239 215 246 142 130 173 224 137 143 230 214 150 144 185 124 142 139 184 141 144 189 168 206 162 212 203 203 146 198 174 173 194 176 173 188 181 202 203 211 210 195 188 177 175 177
Wind_Speed
26 23 28 53 32 31 29 54 30 21 20 20 19 15 31 19 9 17 18 25 8 7 17 9 17 11 10 6 15 11 23 19 18 28 39 24 20 32 21 27 33 30 29 28 25
48 44 44 40 45 43 33 27 26 25 24 27 32 20 32 26 18 17 19 24 20 16 7 11 22 15 12 12 16 21 15 34 24 26 24 21 22 27 32 22 26 31 34 30 32
51 52 45 40 42 35 39 33 29 27 29 38 27 35 28 28 28 28 22 17 20 14 18 17 25 14 34 17 28 12 18 24 23 25 32 21 24 24 35 32 29 35 31 34 34
53 53 50 47 44 39 36 35 36 30 39 26 27 26 31 21 19 29 18 37 17 17 37 15 19 30 20 17 19 15 16 24 29 21 24 47 44 34 38 37 37 34 32 32 37
58 53 49 50 47 43 42 40 40 34 36 29 28 33 27 30 20 26 35 20 28 38 21 21 20 23 24 24 26 32 30 35 36 24 33 46 47 44 42 38 42 38 36 36 37
60 59 54 55 50 46 44 44 40 36 34 33 30 28 28 29 29 22 34 25 25 21 32 39 31 29 26 35 31 31 31 40 39 28 47 46 49 53 45 41 50 40 43 41 41
62 61 58 57 51 49 50 45 43 39 36 35 32 29 25 36 37 27 24 25 21 21 21 23 27 29 30 30 36 52 36 46 35 40 56 52 44 53 51 44 40 42 45 49 48
68 74 62 59 54 52 51 56 48 42 40 37 39 32 30 44 30 28 29 30 35 25 23 28 33 34 32 35 35 45 39 46 50 48 47 54 42 47 54 49 49 46 51 52 54
73 65 64 62 61 57 52 49 44 46 42 38 38 37 46 37 30 35 27 28 28 29 26 25 31 35 32 46 33 65 58 55 51 56 55 46 44 48 56 52 53 53 57 55 55
70 72 73 65 60 58 53 51 49 54 44 44 45 38 37 59 31 29 33 32 30 31 28 29 35 35 38 51 43 42 56 63 55 61 49 49 47 46 57 58 51 54 57 58 59
71 66 92 67 54 59 59 56 51 47 49 38 66 56 37 59 32 33 34 35 29 35 35 31 55 43 56 45 48 58 33 62 59 49 46 47 56 60 62 59 55 58 60 57 58
67 65 68 70 63 64 61 64 42 54 50 48 44 56 38 41 41 35 39 37 37 39 37 38 62 46 39 37 43 65 34 61 51 50 46 56 54 57 64 56 58 59 60 60 53
79 66 98 95 68 74 64 58 60 55 58 51 48 46 48 50 34 36 37 37 41 46 56 36 53 36 44 40 64 60 55 50 50 53 57 45 59 62 55 62 62 58 58 54 48
76 70 65 79 90 70 66 64 61 59 59 56 57 53 46 47 50 46 35 40 42 49 40 71 51 54 52 61 58 55 50 50 52 56 45 62 60 58 54 61 63 60 53 36 37
65 73 102 49 62 65 62 66 83 83 58 53 56 46 54 54 44 59 52 44 41 38 53 60 63 23 63 57 58 53 52 56 51 59 63 64 46 48 55 64 59 50 38 36 33
93 65 50 58 65 64 89 62 64 65 59 70 60 55 52 55 63 47 50 32 30 32 32 47 52 25 53 57 51 56 54 52 50 60 64 57 46 48 59 60 48 41 36 38 37
94 44 83 89 52 79 65 75 69 65 56 61 54 55 58 51 47 53 48 54 43 40 48 57 26 46 28 54 53 53 52 50 51 53 65 58 49 53 60 52 42 34 36 39 39
105 109 91 58 105 89 58 61 78 78 64 58 64 52 50 48 45 45 85 42 44 43 49 43 38 50 30 58 60 53 54 53 62 53 64 48 52 59 54 44 35 39 39 37 38
104 106 105 86 80 62 75 55 62 76 62 58 58 68 57 52 47 46 46 44 43 53 50 41 46 59 39 54 56 52 53 57 61 54 68 54 53 61 54 39 40 41 41 37 34
96 88 110 110 89 55 61 67 64 66 64 59 54 66 56 49 49 47 49 45 49 45 47 53 36 42 58 57 60 55 56 56 59 62 54 60 54 59 47 42 41 43 41 42 48
83 121 110 86 115 73 84 70 64 61 68 60 65 71 50 51 54 49 51 47 47 47 51 56 43 56 60 63 56 51 59 52 65 58 54 58 54 58 50 44 43 46 46 41 52
121 74 119 81 111 109 110 81 74 62 58 54 54 54 50 45 46 45 50 49 47 46 51 55 59 62 62 61 57 56 52 62 70 57 55 55 57 58 49 45 43 45 49 51 52
83 97 82 93 115 66 89 53 69 60 61 55 52 57 61 63 59 57 58 51 47 45 62 66 68 66 61 60 59 55 57 59 71 60 59 61 57 55 50 47 44 46 47 50 52
95 80 82 68 83 104 91 95 62 66 59 58 69 68 57 87 61 60 54 57 49 56 56 56 64 67 64 59 56 60 59 61 72 57 59 63 62 53 51 46 46 48 50 51 54
72 79 76 82 104 89 81 110 93 93 65 92 90 63 61 72 59 66 64 68 70 68 60 65 61 66 63 57 57 60 58 63 57 57 61 62 61 58 52 47 49 50 51 54 57
66 68 70 94 74 88 42 86 58 75 94 66 75 78 57 73 61 58 56 53 66 64 68 65 63 65 63 61 57 59 65 66 64 64 65 65 69 62 59 52 52 53 52 57 59
66 71 67 83 71 76 80 77 59 94 87 65 69 88 63 68 60 80 60 60 73 70 70 68 63 65 64 68 61 63 62 63 59 60 64 65 65 65 63 57 57 56 55 60 63
Wind_Direction
246 252 250 238 222 222 226 247 252 271 239 251 252 259 285 283 270 252 247 292 291 307 312 281 339 271 341 336 358 325 356 338 1 343 341 348 344 348 348 332 318 315 295 309 304
233 236 240 240 232 239 253 259 233 238 235 239 266 256 283 256 279 278 290 304 295 268 279 322 321 330 305 318 288 305 346 348 351 346 333 302 313 332 334 319 329 311 287 308 307
222 235 227 224 224 223 241 230 229 241 254 267 261 272 270 279 286 289 285 283 268 287 275 295 311 288 315 300 327 303 333 339 296 341 340 311 315 297 331 326 319 322 305 309 305
219 233 224 230 236 226 225 231 238 232 256 246 253 250 270 263 263 288 263 297 269 271 301 295 302 307 320 300 315 294 308 301 333 310 322 331 327 317 323 324 320 321 315 300 308
225 222 235 229 221 228 230 230 236 230 252 234 248 264 256 274 249 280 290 262 289 298 293 290 301 307 293 305 310 318 313 330 330 303 330 332 324 319 315 310 312 319 311 302 305
226 225 234 227 235 222 224 231 233 233 238 236 247 258 256 266 258 249 280 276 283 286 296 301 302 315 302 315 314 311 315 325 327 311 328 328 323 315 312 312 308 316 324 315 306
223 228 226 227 225 230 231 230 231 232 240 235 247 249 248 267 260 259 256 271 276 286 290 292 303 303 301 302 313 312 320 323 311 321 316 322 321 314 313 321 316 320 320 316 312
228 231 225 227 235 230 228 241 236 233 237 238 252 242 235 265 247 250 266 267 282 284 291 289 302 303 299 305 307 317 317 320 316 320 322 314 319 308 314 315 322 313 317 314 313
235 233 234 230 229 231 230 232 241 236 236 237 246 242 262 256 243 255 256 265 272 281 287 295 291 299 297 305 297 311 306 316 317 309 313 318 317 310 313 319 313 314 316 313 309
228 234 233 231 229 234 233 235 240 243 238 244 250 245 251 269 255 253 267 268 272 276 286 289 285 293 299 308 309 311 310 308 309 310 309 310 313 313 312 309 314 312 309 309 306
228 225 237 226 237 233 234 231 241 241 239 245 262 258 243 266 249 252 257 264 274 278 287 288 294 299 296 302 310 309 295 308 309 306 309 310 309 315 308 306 315 316 309 307 305
226 231 234 237 237 238 235 248 245 244 243 240 241 255 245 252 259 255 265 266 276 277 285 287 295 299 297 299 308 306 315 306 304 305 309 310 309 308 307 317 319 314 312 310 306
230 236 235 240 233 245 236 235 239 241 246 243 244 255 252 270 252 257 258 265 270 281 289 283 292 291 300 301 304 303 302 301 302 313 316 308 310 305 315 315 315 312 311 308 305
228 234 230 238 240 240 240 237 241 241 240 255 246 245 247 253 260 261 267 265 268 284 279 292 290 293 298 298 298 299 300 301 304 319 307 310 309 307 312 314 311 310 307 307 311
233 231 237 241 231 232 235 241 250 253 246 245 249 246 260 263 250 274 274 267 269 277 286 288 292 289 298 294 298 298 296 303 303 313 313 310 311 315 313 312 311 310 309 309 303
229 235 236 235 231 233 241 238 241 245 244 253 251 254 256 261 270 264 254 273 276 276 283 287 288 285 295 296 294 296 294 299 302 309 312 312 314 315 313 310 310 309 304 300 305
228 239 234 235 241 236 236 238 242 242 243 247 248 253 258 259 261 263 270 273 274 281 279 289 275 291 297 293 294 295 297 307 310 311 310 313 314 315 312 309 305 302 298 301 308
230 233 232 236 238 238 238 239 244 246 246 247 253 250 252 251 261 265 278 268 274 278 280 285 283 288 301 294 294 296 296 306 316 304 303 315 317 314 310 308 301 296 299 308 308
231 233 235 232 228 237 236 241 241 242 243 244 248 255 255 258 260 262 266 267 271 276 280 284 284 288 292 293 291 295 299 311 301 302 305 309 314 310 309 304 297 295 297 298 303
228 234 235 237 235 236 237 243 241 241 245 245 247 254 253 254 258 260 263 268 270 275 277 281 281 292 286 287 290 294 303 308 296 301 304 302 314 307 307 299 293 295 298 300 299
226 233 234 236 238 234 237 241 241 244 245 247 251 253 252 256 259 261 263 264 269 275 278 277 290 281 288 286 288 304 305 296 300 303 304 308 311 304 305 295 296 294 297 298 300
231 226 235 234 238 240 239 240 240 242 241 243 247 252 255 256 258 254 266 260 272 273 282 275 279 284 287 285 289 290 291 299 301 300 306 305 309 304 302 291 294 293 295 295 298
225 231 230 235 239 236 239 243 236 237 239 243 244 252 257 256 260 262 265 260 266 273 282 283 284 281 281 283 286 287 292 294 296 297 306 304 310 302 301 290 292 293 297 296 299
231 227 230 230 232 239 236 239 239 237 242 243 249 250 250 259 260 261 258 271 274 274 278 275 277 278 278 281 286 286 287 297 293 300 305 302 305 305 300 290 291 294 295 297 300
229 229 233 233 236 233 239 242 243 244 240 246 249 247 250 258 254 262 267 271 273 274 269 274 274 279 277 282 286 287 290 297 296 300 297 306 301 304 299 291 293 294 295 296 297
235 234 235 234 239 236 235 238 253 238 244 241 248 251 246 255 252 259 259 262 269 261 273 273 273 275 276 279 282 288 289 296 289 291 294 300 303 301 301 295 292 293 299 302 304
231 232 233 235 244 240 236 241 243 244 245 254 258 250 260 250 252 259 257 261 268 266 273 268 270 275 274 280 282 284 287 288 294 295 297 301 298 298 300 294 291 296 301 302 303